FW5697 Weather Reports


Display with metric or nautical units.
time (UTC)temp
F
wind
direction
speed
MPH
gust
MPH
rain 1hr
in
rain 24hr
in
rain mn
in
humidity
%
barometer
mb
20260904121534 71 0 0.0 0.0 0.00 0.00 0.00 97 1017.2
20260904120038 71 0 0.0 0.0 0.00 0.00 0.00 97 1017.1
20260904114537 71 0 0.0 0.0 0.00 0.00 0.00 96 1017.0
20260904113036 71 0 0.0 0.0 0.00 0.00 0.00 96 1016.9
20260904111533 71 0 0.0 0.0 0.00 0.00 0.00 96 1017.0
20260904110036 71 0 0.0 0.0 0.00 0.00 0.00 96 1016.8
20260904104534 71 0 0.0 1.0 0.00 0.00 0.00 95 1016.7
20260904103034 71 0 0.0 0.0 0.00 0.00 0.00 96 1016.6
20260904101533 71 0 0.0 0.0 0.00 0.00 0.00 96 1016.6
20260904100035 71 0 0.0 0.0 0.00 0.00 0.00 95 1016.5
20260904094541 72 0 0.0 0.0 0.00 0.00 0.00 95 1016.5
20260904093034 72 0 0.0 0.0 0.00 0.00 0.00 95 1016.5
20260904091534 72 0 0.0 0.0 0.00 0.00 0.00 95 1016.3
20260904090036 72 0 0.0 0.0 0.00 0.00 0.00 94 1016.3
20260904084532 72 0 0.0 0.0 0.00 0.00 0.00 94 1016.2
20260904083042 73 0 0.0 0.0 0.00 0.00 0.00 94 1016.3
20260904081534 73 0 0.0 0.0 0.00 0.00 0.00 94 1016.2
20260904080036 73 0 0.0 0.0 0.00 0.00 0.00 94 1016.2
20260904074535 73 0 0.0 0.0 0.00 0.00 0.00 94 1016.3
20260904073033 73 0 0.0 0.0 0.00 0.00 0.00 93 1016.0
20260904071533 74 0 0.0 0.0 0.00 0.00 0.00 93 1016.0
20260904070032 74 0 0.0 0.0 0.00 0.00 0.00 93 1016.0
20260904064532 74 0 0.0 0.0 0.00 0.00 0.00 93 1016.1
20260904063036 74 0 0.0 0.0 0.00 0.00 0.00 92 1016.2
20260904061532 74 0 0.0 0.0 0.00 0.00 0.00 92 1016.2
20260904060033 74 0 0.0 0.0 0.00 0.00 0.00 92 1016.4
20260904054532 75 0 0.0 0.0 0.00 0.00 0.00 92 1016.4
20260904053035 75 0 0.0 0.0 0.00 0.00 0.00 92 1016.3
20260904051534 75 0 0.0 0.0 0.00 0.00 0.00 91 1016.4
20260904050034 75 0 0.0 0.0 0.00 0.00 0.00 91 1016.5
20260904044535 76 0 0.0 0.0 0.00 0.00 0.00 90 1016.4
20260904043039 76 0 0.0 0.0 0.00 0.00 0.00 90 1016.4
20260904041537 76 0 0.0 0.0 0.00 0.00 0.00 89 1016.4
20260904040035 77 0 0.0 0.0 0.00 0.00 0.00 88 1016.4
20260904034543 77 0 0.0 0.0 0.00 0.00 0.00 88 1016.4
20260904033039 77 0 0.0 0.0 0.00 0.00 0.00 87 1016.5
20260904031533 78 0 0.0 0.0 0.00 0.00 0.00 86 1016.5
20260904030037 78 0 0.0 0.0 0.00 0.00 0.00 85 1016.5
20260904024542 79 0 0.0 0.0 0.00 0.00 0.00 85 1016.5
20260904023035 79 0 0.0 0.0 0.00 0.00 0.00 83 1016.6
20260904021536 80 0 0.0 0.0 0.00 0.00 0.00 83 1016.6
20260904020036 81 0 0.0 0.0 0.00 0.00 0.00 81 1016.6
20260904014538 81 0 0.0 0.0 0.00 0.00 0.00 81 1016.4
20260904013041 82 0 0.0 0.0 0.00 0.00 0.00 78 1016.3
20260904011538 82 0 0.0 0.0 0.00 0.00 0.00 78 1016.1
20260904010041 83 0 0.0 0.0 0.00 0.00 0.00 75 1015.9
20260904004535 84 0 0.0 0.0 0.00 0.00 0.00 73 1015.5
20260904003036 85 0 0.0 0.0 0.00 0.00 0.00 70 1015.5
20260904001535 86 0 0.0 1.0 0.00 0.00 0.00 68 1015.2
20260904000033 87 0 0.0 0.0 0.00 0.00 0.00 64 1015.1
20260903234535 89 0 0.0 0.0 0.00 0.00 0.00 62 1015.0
20260903233037 91 0 0.0 0.0 0.00 0.00 0.00 59 1014.9
20260903231536 92 0 0.0 0.0 0.00 0.00 0.00 56 1014.9
20260903230040 93 0 0.0 0.0 0.00 0.00 0.00 53 1014.6
20260903224551 94 0 0.0 1.0 0.00 0.00 0.00 52 1014.6
20260903223036 96 0 0.0 2.0 0.00 0.00 0.00 50 1014.4
20260903221536 96 0 0.0 2.0 0.00 0.00 0.00 49 1014.5
20260903220043 96 0 0.0 2.0 0.00 0.00 0.00 49 1014.5
20260903214540 96 83 0.0 2.0 0.00 0.00 0.00 49 1014.4
20260903213040 96 51 0.0 1.0 0.00 0.00 0.00 52 1014.5
20260903211540 96 40 0.0 2.0 0.00 0.00 0.00 49 1014.7
20260903210048 96 0 0.0 2.0 0.00 0.00 0.00 49 1014.8
20260903204542 96 98 1.0 4.0 0.00 0.00 0.00 48 1014.9
20260903203033 96 97 0.0 3.0 0.00 0.00 0.00 50 1015.0
20260903201542 94 0 0.0 1.0 0.00 0.00 0.00 53 1015.4
20260903200039 94 0 0.0 2.0 0.00 0.00 0.00 52 1015.6
20260903194536 95 0 0.0 2.0 0.00 0.00 0.00 54 1015.8
20260903193039 94 307 0.0 2.0 0.00 0.00 0.00 56 1015.9
20260903191537 94 0 0.0 0.0 0.00 0.00 0.00 56 1015.9
20260903190035 94 50 0.0 3.0 0.00 0.00 0.00 55 1016.1
20260903184535 94 0 0.0 4.0 0.00 0.00 0.00 54 1016.2
20260903183033 94 0 0.0 6.0 0.00 0.00 0.00 57 1016.5
20260903181535 92 0 0.0 4.0 0.00 0.00 0.00 59 1016.5
20260903180042 92 0 0.0 2.0 0.00 0.00 0.00 61 1016.6
20260903174536 92 0 0.0 3.0 0.00 0.00 0.00 60 1016.7
20260903173034 92 0 2.0 5.0 0.00 0.00 0.00 59 1016.9
20260903171533 91 0 0.0 1.0 0.00 0.00 0.00 63 1017.2
20260903170037 91 56 2.0 4.0 0.00 0.00 0.00 62 1017.5
20260903164533 90 103 0.0 3.0 0.00 0.00 0.00 64 1017.7
20260903163035 90 0 0.0 2.0 0.00 0.00 0.00 62 1017.8
20260903161534 90 0 0.0 2.0 0.00 0.00 0.00 65 1018.0
20260903160034 90 13 0.0 3.0 0.00 0.00 0.00 65 1018.2
20260903154555 88 0 0.0 2.0 0.00 0.00 0.00 69 1018.3
20260903153034 87 0 0.0 3.0 0.00 0.00 0.00 72 1018.2
20260903151533 86 32 0.0 3.0 0.00 0.00 0.00 74 1018.2
20260903150034 85 0 0.0 1.0 0.00 0.00 0.00 78 1018.2
20260903144535 84 0 0.0 1.0 0.00 0.00 0.00 79 1018.1
20260903143044 82 0 0.0 0.0 0.00 0.00 0.00 82 1018.1
20260903141537 81 0 0.0 0.0 0.00 0.00 0.00 83 1018.1
20260903140033 80 0 0.0 0.0 0.00 0.00 0.00 88 1018.1
20260903134532 78 0 0.0 0.0 0.00 0.00 0.00 90 1018.2
20260903133036 77 0 0.0 0.0 0.00 0.00 0.00 93 1018.1
20260903131534 75 0 0.0 0.0 0.00 0.00 0.00 95 1018.2
20260903130037 75 0 0.0 0.0 0.00 0.00 0.00 96 1018.3
20260903124542 74 0 0.0 0.0 0.00 0.00 0.00 97 1018.5
20260903123037 73 0 0.0 0.0 0.00 0.00 0.00 97 1018.4